Location: Holyhead Bay
(53.3667°N, 4.6667°W)
Time: 19:43:57
(UTC+00:00)

Okean-O - Pass Details

Date: 24 November 2020
Orbit: 639 x 640 km, 98.2° (Epoch: 17 January)

Event Time Altitude Azimuth Distance (km) Brightness Sun altitude
Rises 18:29:08 0° 159° (SSE) 2,935 5.9 -20.0°
Reaches altitude 10° 18:31:20 10° 158° (SSE) 2,031 5.1 -20.3°
Maximum altitude 18:35:45 78° 73° (ENE) 662 2.5 -20.9°
Drops below altitude 10° 18:40:13 10° 347° (NNW) 2,047 5.3 -21.6°
Sets 18:42:26 0° 346° (NNW) 2,961 6.2 -21.9°
